Time,TemperatureF,DewpointF,PressureIn,WindDirection,WindDirectionDegrees,WindSpeedMPH,WindSpeedGustMPH,Humidity,HourlyPrecipIn,Conditions,Clouds,dailyrainin,SoftwareType,DateUTC
2013-01-29 00:00:00,70.8,64.7,29.88,SSE,158,0.0,7.0,81,0.00,,CLR,0.00,VWS V14.01,2013-01-29 06:00:00,
2013-01-29 00:04:00,70.8,65.0,29.87,South,171,0.0,9.0,82,0.00,,OVC027,0.00,VWS V14.01,2013-01-29 06:04:00,
2013-01-29 00:09:00,71.0,64.9,29.87,SSE,160,7.0,10.0,81,0.00,,OVC027,0.00,VWS V14.01,2013-01-29 06:09:00,
2013-01-29 00:10:00,70.8,65.0,29.88,South,176,2.0,6.0,82,0.00,,CLR,0.00,VWS V14.01,2013-01-29 06:10:00,
2013-01-29 00:14:00,71.0,64.9,29.87,SE,144,2.0,10.0,81,0.00,,OVC027,0.00,VWS V14.01,2013-01-29 06:14:00,
2013-01-29 00:19:00,71.0,64.9,29.87,SE,141,4.0,5.0,81,0.00,,OVC027,0.00,VWS V14.01,2013-01-29 06:19:00,
2013-01-29 00:20:00,71.0,64.9,29.87,SSE,159,2.0,10.0,81,0.00,,CLR,0.00,VWS V14.01,2013-01-29 06:20:00,
2013-01-29 00:24:00,70.8,64.7,29.87,SSW,196,6.0,9.0,81,0.00,,OVC027,0.00,VWS V14.01,2013-01-29 06:24:00,
2013-01-29 00:29:00,70.8,64.7,29.87,SSE,157,4.0,6.0,81,0.00,,OVC027,0.00,VWS V14.01,2013-01-29 06:29:00,
2013-01-29 00:30:00,71.0,64.9,29.87,South,190,4.0,10.0,81,0.00,,CLR,0.00,VWS V14.01,2013-01-29 06:30:00,
2013-01-29 00:34:00,70.8,64.7,29.86,South,169,2.0,7.0,81,0.00,,OVC027,0.00,VWS V14.01,2013-01-29 06:34:00,
2013-01-29 00:39:00,70.8,64.7,29.86,SSE,168,2.0,2.0,81,0.00,,OVC027,0.00,VWS V14.01,2013-01-29 06:39:00,
2013-01-29 00:40:00,70.8,64.7,29.87,South,171,6.0,9.0,81,0.00,,CLR,0.00,VWS V14.01,2013-01-29 06:40:00,
2013-01-29 00:44:00,70.8,64.7,29.86,South,178,2.0,5.0,81,0.00,,OVC027,0.00,VWS V14.01,2013-01-29 06:44:00,
2013-01-29 00:49:00,70.8,64.7,29.86,SSE,150,0.0,5.0,81,0.00,,OVC027,0.00,VWS V14.01,2013-01-29 06:49:00,
2013-01-29 00:50:00,70.8,64.7,29.86,SSE,165,0.0,7.0,81,0.00,,CLR,0.00,VWS V14.01,2013-01-29 06:50:00,
2013-01-29 00:54:00,70.8,64.7,29.86,South,189,4.0,5.0,81,0.00,,OVC027,0.00,VWS V14.01,2013-01-29 06:54:00,
2013-01-29 00:59:00,70.8,64.7,29.86,South,176,5.0,5.0,81,0.00,,OVC027,0.00,VWS V14.01,2013-01-29 06:59:00,
2013-01-29 01:00:00,70.8,64.7,29.86,SE,142,1.0,5.0,81,0.00,,CLR,0.00,VWS V14.01,2013-01-29 07:00:00,
2013-01-29 01:04:00,71.0,64.9,29.86,South,183,3.0,5.0,81,0.00,,OVC030,0.00,VWS V14.01,2013-01-29 07:04:00,
2013-01-29 01:09:00,71.0,64.9,29.86,SSW,192,3.0,3.0,81,0.00,,OVC030,0.00,VWS V14.01,2013-01-29 07:09:00,
2013-01-29 01:10:00,70.8,64.7,29.86,SSE,166,2.0,7.0,81,0.00,,CLR,0.00,VWS V14.01,2013-01-29 07:10:00,
2013-01-29 01:14:00,71.0,64.9,29.86,South,185,0.0,5.0,81,0.00,,OVC030,0.00,VWS V14.01,2013-01-29 07:14:00,
2013-01-29 01:19:00,71.0,64.9,29.86,South,185,1.0,4.0,81,0.00,,OVC030,0.00,VWS V14.01,2013-01-29 07:19:00,
2013-01-29 01:20:00,71.0,64.9,29.86,SSW,192,1.0,7.0,81,0.00,,CLR,0.00,VWS V14.01,2013-01-29 07:20:00,
2013-01-29 01:24:00,71.0,64.9,29.86,SW,234,1.0,7.0,81,0.00,,OVC030,0.00,VWS V14.01,2013-01-29 07:24:00,
2013-01-29 01:29:00,71.0,64.9,29.86,SSE,160,0.0,2.0,81,0.00,,OVC030,0.00,VWS V14.01,2013-01-29 07:29:00,
2013-01-29 01:30:00,71.0,64.9,29.86,South,185,4.0,5.0,81,0.00,,CLR,0.00,VWS V14.01,2013-01-29 07:30:00,
2013-01-29 01:34:00,71.0,64.9,29.86,SSW,196,0.0,6.0,81,0.00,,OVC030,0.00,VWS V14.01,2013-01-29 07:34:00,
2013-01-29 01:39:00,71.0,64.9,29.86,South,175,1.0,4.0,81,0.00,,OVC030,0.00,VWS V14.01,2013-01-29 07:39:00,
2013-01-29 01:40:00,71.0,64.9,29.86,SSE,160,0.0,7.0,81,0.00,,CLR,0.00,VWS V14.01,2013-01-29 07:40:00,
2013-01-29 01:44:00,71.0,64.9,29.86,SSE,161,4.0,4.0,81,0.00,,OVC030,0.00,VWS V14.01,2013-01-29 07:44:00,
2013-01-29 01:49:00,71.0,64.9,29.85,SSE,151,2.0,2.0,81,0.00,,OVC030,0.00,VWS V14.01,2013-01-29 07:49:00,
2013-01-29 01:50:00,71.0,64.9,29.86,East,96,1.0,6.0,81,0.00,,CLR,0.00,VWS V14.01,2013-01-29 07:50:00,
2013-01-29 01:54:00,71.0,64.9,29.85,South,170,2.0,5.0,81,0.00,,OVC030,0.00,VWS V14.01,2013-01-29 07:54:00,
2013-01-29 01:59:00,71.0,64.9,29.85,South,186,0.0,1.0,81,0.00,,OVC030,0.00,VWS V14.01,2013-01-29 07:59:00,
2013-01-29 02:00:00,71.0,64.9,29.85,SSE,150,0.0,5.0,81,0.00,,CLR,0.00,VWS V14.01,2013-01-29 08:00:00,
2013-01-29 02:04:00,71.0,64.9,29.84,SSE,159,0.0,6.0,81,0.00,,OVC027,0.00,VWS V14.01,2013-01-29 08:04:00,
2013-01-29 02:09:00,71.0,64.9,29.84,South,175,1.0,5.0,81,0.00,,OVC027,0.00,VWS V14.01,2013-01-29 08:09:00,
2013-01-29 02:10:00,71.0,64.9,29.85,South,186,1.0,5.0,81,0.00,,CLR,0.00,VWS V14.01,2013-01-29 08:10:00,
2013-01-29 02:14:00,71.0,64.9,29.84,South,171,5.0,5.0,81,0.00,,OVC027,0.00,VWS V14.01,2013-01-29 08:14:00,
2013-01-29 02:19:00,71.0,64.9,29.83,South,169,0.0,1.0,81,0.00,,OVC027,0.00,VWS V14.01,2013-01-29 08:19:00,
2013-01-29 02:20:00,71.0,64.9,29.84,South,169,0.0,6.0,81,0.00,,CLR,0.00,VWS V14.01,2013-01-29 08:20:00,
2013-01-29 02:24:00,71.0,64.9,29.83,South,169,0.0,5.0,81,0.00,,OVC027,0.00,VWS V14.01,2013-01-29 08:24:00,
2013-01-29 02:29:00,71.0,64.5,29.83,SSE,167,4.0,4.0,80,0.00,,OVC027,0.00,VWS V14.01,2013-01-29 08:29:00,
2013-01-29 02:30:00,71.0,64.9,29.83,South,169,0.0,6.0,81,0.00,,CLR,0.00,VWS V14.01,2013-01-29 08:30:00,
2013-01-29 02:34:00,71.1,64.6,29.83,South,177,4.0,8.0,80,0.00,,OVC027,0.00,VWS V14.01,2013-01-29 08:34:00,
2013-01-29 02:39:00,71.1,64.6,29.83,South,179,6.0,6.0,80,0.00,,OVC027,0.00,VWS V14.01,2013-01-29 08:39:00,
2013-01-29 02:40:00,71.0,64.5,29.83,South,173,2.0,7.0,80,0.00,,CLR,0.00,VWS V14.01,2013-01-29 08:40:00,
2013-01-29 02:44:00,71.1,64.3,29.83,SSE,163,1.0,6.0,79,0.00,,OVC027,0.00,VWS V14.01,2013-01-29 08:44:00,
2013-01-29 02:49:00,71.1,64.3,29.83,SSW,210,7.0,7.0,79,0.00,,OVC027,0.00,VWS V14.01,2013-01-29 08:49:00,
2013-01-29 02:50:00,71.1,64.6,29.83,SSW,196,2.0,8.0,80,0.00,,CLR,0.00,VWS V14.01,2013-01-29 08:50:00,
2013-01-29 02:54:00,71.1,64.3,29.83,South,173,4.0,7.0,79,0.00,,OVC027,0.00,VWS V14.01,2013-01-29 08:54:00,
2013-01-29 02:59:00,71.1,64.3,29.83,South,188,2.0,3.0,79,0.00,,OVC027,0.00,VWS V14.01,2013-01-29 08:59:00,
2013-01-29 03:00:00,71.1,64.3,29.83,South,184,1.0,6.0,79,0.00,,CLR,0.00,VWS V14.01,2013-01-29 09:00:00,
2013-01-29 03:04:00,71.1,64.3,29.84,South,190,3.0,5.0,79,0.00,,OVC026,0.00,VWS V14.01,2013-01-29 09:04:00,
2013-01-29 03:09:00,71.1,64.3,29.84,South,180,3.0,4.0,79,0.00,,OVC026,0.00,VWS V14.01,2013-01-29 09:09:00,
2013-01-29 03:10:00,71.1,64.3,29.83,South,186,0.0,7.0,79,0.00,,CLR,0.00,VWS V14.01,2013-01-29 09:10:00,
2013-01-29 03:14:00,71.1,64.3,29.84,SSE,162,2.0,6.0,79,0.00,,OVC026,0.00,VWS V14.01,2013-01-29 09:14:00,
2013-01-29 03:19:00,71.1,64.3,29.84,SSW,201,3.0,3.0,79,0.00,,OVC026,0.00,VWS V14.01,2013-01-29 09:19:00,
2013-01-29 03:20:00,71.1,64.3,29.84,South,178,2.0,5.0,79,0.00,,CLR,0.00,VWS V14.01,2013-01-29 09:20:00,
2013-01-29 03:24:00,71.1,64.3,29.84,South,186,4.0,8.0,79,0.00,,OVC026,0.00,VWS V14.01,2013-01-29 09:24:00,
2013-01-29 03:29:00,71.1,64.3,29.84,WSW,252,1.0,5.0,79,0.00,,OVC026,0.00,VWS V14.01,2013-01-29 09:29:00,
2013-01-29 03:30:00,71.1,64.3,29.84,SSW,201,2.0,6.0,79,0.00,,CLR,0.00,VWS V14.01,2013-01-29 09:30:00,
2013-01-29 03:34:00,71.1,64.3,29.83,South,172,2.0,8.0,79,0.00,,OVC026,0.00,VWS V14.01,2013-01-29 09:34:00,
2013-01-29 03:39:00,71.1,63.9,29.83,South,188,2.0,6.0,78,0.00,,OVC026,0.00,VWS V14.01,2013-01-29 09:39:00,
2013-01-29 03:40:00,71.1,64.3,29.84,South,181,4.0,8.0,79,0.00,,CLR,0.00,VWS V14.01,2013-01-29 09:40:00,
2013-01-29 03:44:00,71.1,63.9,29.83,South,172,4.0,6.0,78,0.00,,OVC026,0.00,VWS V14.01,2013-01-29 09:44:00,
2013-01-29 03:49:00,71.3,64.1,29.83,South,172,4.0,9.0,78,0.00,,OVC026,0.00,VWS V14.01,2013-01-29 09:49:00,
2013-01-29 03:50:00,71.1,63.9,29.83,South,182,0.0,8.0,78,0.00,,CLR,0.00,VWS V14.01,2013-01-29 09:50:00,
2013-01-29 03:54:00,71.3,63.7,29.83,SSE,161,4.0,9.0,77,0.00,,OVC026,0.00,VWS V14.01,2013-01-29 09:54:00,
2013-01-29 03:59:00,71.3,64.1,29.83,South,172,2.0,5.0,78,0.00,,OVC026,0.00,VWS V14.01,2013-01-29 09:59:00,
2013-01-29 04:00:00,71.3,64.1,29.83,SSW,211,4.0,11.0,78,0.00,,CLR,0.00,VWS V14.01,2013-01-29 10:00:00,
2013-01-29 04:04:00,71.3,64.1,29.82,South,186,2.0,5.0,78,0.00,,OVC033,0.00,VWS V14.01,2013-01-29 10:04:00,
2013-01-29 04:09:00,71.3,63.7,29.82,SSW,201,1.0,5.0,77,0.00,,OVC033,0.00,VWS V14.01,2013-01-29 10:09:00,
2013-01-29 04:10:00,71.3,63.7,29.83,SSE,161,4.0,9.0,77,0.00,,CLR,0.00,VWS V14.01,2013-01-29 10:10:00,
2013-01-29 04:14:00,71.3,63.7,29.82,South,175,1.0,9.0,77,0.00,,OVC033,0.00,VWS V14.01,2013-01-29 10:14:00,
2013-01-29 04:19:00,71.3,63.7,29.81,SSE,162,1.0,5.0,77,0.00,,OVC033,0.00,VWS V14.01,2013-01-29 10:19:00,
2013-01-29 04:20:00,71.3,63.7,29.82,SSW,200,3.0,7.0,77,0.00,,CLR,0.00,VWS V14.01,2013-01-29 10:20:00,
2013-01-29 04:24:00,71.3,63.7,29.81,South,174,4.0,5.0,77,0.00,,OVC037,0.00,VWS V14.01,2013-01-29 10:24:00,
2013-01-29 04:29:00,71.5,63.9,29.81,South,181,1.0,3.0,77,0.00,,OVC037,0.00,VWS V14.01,2013-01-29 10:29:00,
2013-01-29 04:30:00,71.3,63.7,29.81,SSE,162,5.0,9.0,77,0.00,,CLR,0.00,VWS V14.01,2013-01-29 10:30:00,
2013-01-29 04:34:00,71.5,63.9,29.81,South,180,2.0,7.0,77,0.00,,OVC037,0.00,VWS V14.01,2013-01-29 10:34:00,
2013-01-29 04:39:00,71.3,63.7,29.81,SSE,161,2.0,4.0,77,0.00,,OVC037,0.00,VWS V14.01,2013-01-29 10:39:00,
2013-01-29 04:40:00,71.5,63.9,29.81,South,181,3.0,7.0,77,0.00,,CLR,0.00,VWS V14.01,2013-01-29 10:40:00,
2013-01-29 04:44:00,71.3,63.7,29.81,South,180,1.0,5.0,77,0.00,,OVC037,0.00,VWS V14.01,2013-01-29 10:44:00,
2013-01-29 04:49:00,71.3,64.1,29.81,SSE,167,2.0,3.0,78,0.00,,OVC037,0.00,VWS V14.01,2013-01-29 10:49:00,
2013-01-29 04:50:00,71.3,63.7,29.81,SSE,164,1.0,7.0,77,0.00,,CLR,0.00,VWS V14.01,2013-01-29 10:50:00,
2013-01-29 04:54:00,71.3,64.1,29.81,SSE,163,0.0,7.0,78,0.00,,OVC037,0.00,VWS V14.01,2013-01-29 10:54:00,
2013-01-29 04:59:00,71.1,63.9,29.81,South,190,4.0,4.0,78,0.00,,OVC037,0.00,VWS V14.01,2013-01-29 10:59:00,
2013-01-29 05:00:00,71.3,64.1,29.81,South,184,1.0,6.0,78,0.00,,CLR,0.00,VWS V14.01,2013-01-29 11:00:00,
2013-01-29 05:04:00,71.1,63.9,29.81,South,186,0.0,5.0,78,0.00,,OVC038,0.00,VWS V14.01,2013-01-29 11:04:00,
2013-01-29 05:09:00,71.1,64.3,29.81,SSE,161,2.0,4.0,79,0.00,,OVC038,0.00,VWS V14.01,2013-01-29 11:09:00,
2013-01-29 05:10:00,71.3,64.1,29.81,South,186,0.0,7.0,78,0.00,,CLR,0.00,VWS V14.01,2013-01-29 11:10:00,
2013-01-29 05:14:00,71.1,64.3,29.81,South,178,2.0,6.0,79,0.00,,OVC038,0.00,VWS V14.01,2013-01-29 11:14:00,
2013-01-29 05:19:00,71.0,64.2,29.80,SSE,161,0.0,1.0,79,0.00,,OVC038,0.00,VWS V14.01,2013-01-29 11:19:00,
2013-01-29 05:20:00,71.1,64.3,29.81,South,172,2.0,5.0,79,0.00,,CLR,0.00,VWS V14.01,2013-01-29 11:20:00,
2013-01-29 05:24:00,71.0,64.5,29.80,SSW,205,3.0,6.0,80,0.00,,OVC038,0.00,VWS V14.01,2013-01-29 11:24:00,
2013-01-29 05:29:00,70.8,64.3,29.80,South,183,0.0,2.0,80,0.00,,OVC038,0.00,VWS V14.01,2013-01-29 11:29:00,
2013-01-29 05:30:00,71.0,64.2,29.80,SSE,161,0.0,6.0,79,0.00,,CLR,0.00,VWS V14.01,2013-01-29 11:30:00,
2013-01-29 05:34:00,70.8,64.3,29.80,SSE,164,0.0,4.0,80,0.00,,OVC038,0.00,VWS V14.01,2013-01-29 11:34:00,
2013-01-29 05:39:00,70.8,64.3,29.80,SSW,210,0.0,2.0,80,0.00,,OVC038,0.00,VWS V14.01,2013-01-29 11:39:00,
2013-01-29 05:40:00,70.8,64.3,29.80,SSW,192,2.0,6.0,80,0.00,,CLR,0.00,VWS V14.01,2013-01-29 11:40:00,
2013-01-29 05:44:00,70.8,64.3,29.80,SSE,161,0.0,5.0,80,0.00,,OVC038,0.00,VWS V14.01,2013-01-29 11:44:00,
2013-01-29 05:49:00,70.8,64.3,29.79,SE,126,2.0,4.0,80,0.00,,OVC038,0.00,VWS V14.01,2013-01-29 11:49:00,
2013-01-29 05:50:00,70.8,64.3,29.80,SSW,210,0.0,4.0,80,0.00,,CLR,0.00,VWS V14.01,2013-01-29 11:50:00,
2013-01-29 05:54:00,70.8,64.3,29.79,SSE,159,1.0,5.0,80,0.00,,OVC038,0.00,VWS V14.01,2013-01-29 11:54:00,
2013-01-29 05:59:00,70.8,64.3,29.79,SSE,163,0.0,2.0,80,0.00,,OVC038,0.00,VWS V14.01,2013-01-29 11:59:00,
2013-01-29 06:00:00,70.8,64.3,29.79,SSE,159,4.0,5.0,80,0.00,,CLR,0.00,VWS V14.01,2013-01-29 12:00:00,
2013-01-29 06:04:00,70.6,64.1,29.78,SSE,163,0.0,2.0,80,0.00,,OVC049,0.00,VWS V14.01,2013-01-29 12:04:00,
2013-01-29 06:09:00,70.6,64.1,29.78,SSE,157,0.0,4.0,80,0.00,,OVC049,0.00,VWS V14.01,2013-01-29 12:09:00,
2013-01-29 06:10:00,70.8,64.3,29.79,SSE,163,2.0,5.0,80,0.00,,CLR,0.00,VWS V14.01,2013-01-29 12:10:00,
2013-01-29 06:14:00,70.4,64.3,29.78,SSE,157,4.0,4.0,81,0.00,,OVC049,0.00,VWS V14.01,2013-01-29 12:14:00,
2013-01-29 06:19:00,70.4,64.3,29.78,SSE,160,0.0,4.0,81,0.00,,OVC049,0.00,VWS V14.01,2013-01-29 12:19:00,
2013-01-29 06:20:00,70.6,64.1,29.78,SSE,161,1.0,4.0,80,0.00,,CLR,0.00,VWS V14.01,2013-01-29 12:20:00,
2013-01-29 06:24:00,70.4,64.3,29.78,SSE,153,0.0,4.0,81,0.00,,OVC049,0.00,VWS V14.01,2013-01-29 12:24:00,
2013-01-29 06:29:00,70.4,64.3,29.78,SSE,159,0.0,2.0,81,0.00,,OVC049,0.00,VWS V14.01,2013-01-29 12:29:00,
2013-01-29 06:30:00,70.4,64.3,29.78,SSE,160,0.0,4.0,81,0.00,,CLR,0.00,VWS V14.01,2013-01-29 12:30:00,
2013-01-29 06:34:00,70.3,64.2,29.78,SSE,159,0.0,2.0,81,0.00,,OVC049,0.00,VWS V14.01,2013-01-29 12:34:00,
2013-01-29 06:39:00,70.3,64.2,29.78,SSE,159,0.0,1.0,81,0.00,,OVC049,0.00,VWS V14.01,2013-01-29 12:39:00,
2013-01-29 06:40:00,70.4,64.3,29.78,SSE,152,2.0,4.0,81,0.00,,CLR,0.00,VWS V14.01,2013-01-29 12:40:00,
2013-01-29 06:44:00,70.1,64.4,29.78,SSE,159,0.0,4.0,82,0.00,,BKN049,0.00,VWS V14.01,2013-01-29 12:44:00,
2013-01-29 06:49:00,69.9,64.2,29.76,SSE,159,0.0,1.0,82,0.00,,BKN049,0.00,VWS V14.01,2013-01-29 12:49:00,
2013-01-29 06:50:00,70.3,64.2,29.78,SSE,159,0.0,2.0,81,0.00,,CLR,0.00,VWS V14.01,2013-01-29 12:50:00,
2013-01-29 06:54:00,69.9,64.2,29.76,SSE,159,0.0,4.0,82,0.00,,BKN049,0.00,VWS V14.01,2013-01-29 12:54:00,
2013-01-29 06:59:00,69.9,64.2,29.76,SSE,159,0.0,2.0,82,0.00,,BKN049,0.00,VWS V14.01,2013-01-29 12:59:00,
2013-01-29 07:00:00,69.9,64.2,29.76,SSE,159,0.0,4.0,82,0.00,,CLR,0.00,VWS V14.01,2013-01-29 13:00:00,
2013-01-29 07:04:00,69.9,64.2,29.77,SSE,167,2.0,2.0,82,0.00,,BKN049,0.00,VWS V14.01,2013-01-29 13:04:00,
2013-01-29 07:09:00,69.9,64.2,29.77,SSW,193,2.0,4.0,82,0.00,,BKN049,0.00,VWS V14.01,2013-01-29 13:09:00,
2013-01-29 07:10:00,69.9,64.2,29.76,SSE,158,2.0,4.0,82,0.00,,CLR,0.00,VWS V14.01,2013-01-29 13:10:00,
2013-01-29 07:14:00,69.9,64.2,29.77,South,169,0.0,4.0,82,0.00,,BKN049,0.00,VWS V14.01,2013-01-29 13:14:00,
2013-01-29 07:19:00,70.1,64.4,29.77,SSE,167,1.0,4.0,82,0.00,,BKN049,0.00,VWS V14.01,2013-01-29 13:19:00,
2013-01-29 07:20:00,69.9,64.2,29.77,SSE,166,1.0,4.0,82,0.00,,CLR,0.00,VWS V14.01,2013-01-29 13:20:00,
2013-01-29 07:24:00,70.1,64.4,29.77,South,169,0.0,4.0,82,0.00,,BKN049,0.00,VWS V14.01,2013-01-29 13:24:00,
2013-01-29 07:29:00,70.1,64.4,29.77,SE,139,2.0,6.0,82,0.00,,BKN049,0.00,VWS V14.01,2013-01-29 13:29:00,
2013-01-29 07:30:00,70.1,64.4,29.77,South,169,1.0,4.0,82,0.00,,CLR,0.00,VWS V14.01,2013-01-29 13:30:00,
2013-01-29 07:34:00,70.3,64.6,29.76,SSE,155,4.0,6.0,82,0.00,,BKN049,0.00,VWS V14.01,2013-01-29 13:34:00,
2013-01-29 07:39:00,70.3,64.6,29.76,SSW,192,2.0,4.0,82,0.00,,BKN049,0.00,VWS V14.01,2013-01-29 13:39:00,
2013-01-29 07:40:00,70.1,64.4,29.77,SSE,148,0.0,6.0,82,0.00,,CLR,0.00,VWS V14.01,2013-01-29 13:40:00,
2013-01-29 07:44:00,70.3,64.6,29.76,SSE,167,0.0,5.0,82,0.00,,BKN049,0.00,VWS V14.01,2013-01-29 13:44:00,
2013-01-29 07:49:00,70.3,64.6,29.76,SSE,167,0.0,1.0,82,0.00,,BKN049,0.00,VWS V14.01,2013-01-29 13:49:00,
2013-01-29 07:50:00,70.3,64.6,29.76,SSE,159,0.0,6.0,82,0.00,,CLR,0.00,VWS V14.01,2013-01-29 13:50:00,
2013-01-29 07:54:00,70.4,64.3,29.76,SSW,197,7.0,7.0,81,0.00,,BKN049,0.00,VWS V14.01,2013-01-29 13:54:00,
2013-01-29 07:59:00,70.4,64.3,29.76,SSE,150,1.0,5.0,81,0.00,,BKN049,0.00,VWS V14.01,2013-01-29 13:59:00,
2013-01-29 08:00:00,70.3,64.6,29.76,SSE,167,0.0,5.0,82,0.00,,CLR,0.00,VWS V14.01,2013-01-29 14:00:00,
2013-01-29 08:04:00,70.4,64.3,29.75,SSE,155,2.0,5.0,81,0.00,,OVC025,0.00,VWS V14.01,2013-01-29 14:04:00,
2013-01-29 08:09:00,70.4,64.3,29.75,SE,139,1.0,2.0,81,0.00,,OVC025,0.00,VWS V14.01,2013-01-29 14:09:00,
2013-01-29 08:10:00,70.4,64.3,29.76,SSE,150,1.0,7.0,81,0.00,,CLR,0.00,VWS V14.01,2013-01-29 14:10:00,
2013-01-29 08:14:00,70.4,64.3,29.75,SSE,165,1.0,5.0,81,0.00,,OVC025,0.00,VWS V14.01,2013-01-29 14:14:00,
2013-01-29 08:19:00,70.6,64.5,29.75,South,178,1.0,2.0,81,0.00,,OVC025,0.00,VWS V14.01,2013-01-29 14:19:00,
2013-01-29 08:20:00,70.4,64.3,29.75,SE,139,1.0,5.0,81,0.00,,CLR,0.00,VWS V14.01,2013-01-29 14:20:00,
2013-01-29 08:24:00,70.6,64.1,29.75,South,180,1.0,5.0,80,0.00,,OVC025,0.00,VWS V14.01,2013-01-29 14:24:00,
2013-01-29 08:29:00,70.8,64.3,29.75,SE,135,2.0,4.0,80,0.00,,OVC025,0.00,VWS V14.01,2013-01-29 14:29:00,
2013-01-29 08:30:00,70.6,64.5,29.75,South,178,1.0,5.0,81,0.00,,CLR,0.00,VWS V14.01,2013-01-29 14:30:00,
2013-01-29 08:34:00,70.8,64.3,29.75,South,169,0.0,4.0,80,0.00,,OVC025,0.00,VWS V14.01,2013-01-29 14:34:00,
2013-01-29 08:39:00,71.0,64.2,29.75,SSW,200,0.0,5.0,79,0.00,,OVC025,0.00,VWS V14.01,2013-01-29 14:39:00,
2013-01-29 08:40:00,70.8,64.3,29.75,South,173,0.0,5.0,80,0.00,,CLR,0.00,VWS V14.01,2013-01-29 14:40:00,
2013-01-29 08:44:00,71.1,64.3,29.75,SSE,154,1.0,7.0,79,0.00,,OVC025,0.00,VWS V14.01,2013-01-29 14:44:00,
2013-01-29 08:49:00,71.1,63.9,29.74,SSE,150,2.0,5.0,78,0.00,,OVC025,0.00,VWS V14.01,2013-01-29 14:49:00,
2013-01-29 08:50:00,71.0,64.2,29.75,SSE,163,1.0,6.0,79,0.00,,CLR,0.00,VWS V14.01,2013-01-29 14:50:00,
2013-01-29 08:54:00,71.3,64.1,29.74,South,172,0.0,6.0,78,0.00,,OVC025,0.00,VWS V14.01,2013-01-29 14:54:00,
2013-01-29 08:59:00,71.3,64.1,29.74,SSE,167,1.0,5.0,78,0.00,,OVC025,0.00,VWS V14.01,2013-01-29 14:59:00,
2013-01-29 09:00:00,71.1,63.9,29.74,SSE,156,0.0,7.0,78,0.00,,CLR,0.00,VWS V14.01,2013-01-29 15:00:00,
2013-01-29 09:04:00,71.3,64.1,29.73,SSE,165,0.0,7.0,78,0.00,,OVC034,0.00,VWS V14.01,2013-01-29 15:04:00,
2013-01-29 09:09:00,71.5,64.3,29.73,SE,134,2.0,4.0,78,0.00,,OVC034,0.00,VWS V14.01,2013-01-29 15:09:00,
2013-01-29 09:10:00,71.3,64.1,29.74,SSE,163,4.0,6.0,78,0.00,,CLR,0.00,VWS V14.01,2013-01-29 15:10:00,
2013-01-29 09:14:00,71.5,63.9,29.73,SSE,163,1.0,5.0,77,0.00,,OVC034,0.00,VWS V14.01,2013-01-29 15:14:00,
2013-01-29 09:19:00,71.5,63.9,29.73,SSW,194,7.0,7.0,77,0.00,,OVC034,0.00,VWS V14.01,2013-01-29 15:19:00,
2013-01-29 09:20:00,71.5,64.3,29.73,SE,129,2.0,7.0,78,0.00,,CLR,0.00,VWS V14.01,2013-01-29 15:20:00,
2013-01-29 09:24:00,71.6,64.0,29.73,WNW,284,4.0,8.0,77,0.00,,OVC034,0.00,VWS V14.01,2013-01-29 15:24:00,
2013-01-29 09:29:00,71.6,64.0,29.73,ESE,121,4.0,8.0,77,0.00,,OVC034,0.00,VWS V14.01,2013-01-29 15:29:00,
2013-01-29 09:30:00,71.5,63.9,29.73,SSE,147,5.0,6.0,77,0.00,,CLR,0.00,VWS V14.01,2013-01-29 15:30:00,
2013-01-29 09:34:00,71.8,64.2,29.73,SSW,194,5.0,8.0,77,0.00,,OVC034,0.00,VWS V14.01,2013-01-29 15:34:00,
2013-01-29 09:39:00,72.0,64.0,29.73,SSE,165,5.0,7.0,76,0.00,,OVC034,0.00,VWS V14.01,2013-01-29 15:39:00,
2013-01-29 09:40:00,71.6,64.0,29.73,SSW,195,2.0,9.0,77,0.00,,CLR,0.00,VWS V14.01,2013-01-29 15:40:00,
2013-01-29 09:44:00,72.2,64.2,29.73,SSW,198,3.0,7.0,76,0.00,,OVC034,0.00,VWS V14.01,2013-01-29 15:44:00,
2013-01-29 09:49:00,72.3,64.7,29.72,South,189,2.0,8.0,77,0.00,,OVC034,0.00,VWS V14.01,2013-01-29 15:49:00,
2013-01-29 09:50:00,72.0,64.0,29.73,South,176,7.0,8.0,76,0.00,,CLR,0.00,VWS V14.01,2013-01-29 15:50:00,
2013-01-29 09:54:00,72.5,64.1,29.72,South,181,5.0,8.0,75,0.00,,OVC034,0.00,VWS V14.01,2013-01-29 15:54:00,
2013-01-29 09:59:00,72.3,63.9,29.72,South,185,1.0,6.0,75,0.00,,OVC034,0.00,VWS V14.01,2013-01-29 15:59:00,
2013-01-29 10:00:00,72.3,64.3,29.72,SSW,202,0.0,7.0,76,0.00,,CLR,0.00,VWS V14.01,2013-01-29 16:00:00,
2013-01-29 10:04:00,72.3,63.9,29.72,South,174,5.0,12.0,75,0.00,,OVC022,0.00,VWS V14.01,2013-01-29 16:04:00,
2013-01-29 10:09:00,72.5,64.1,29.72,SW,223,2.0,6.0,75,0.00,,OVC022,0.00,VWS V14.01,2013-01-29 16:09:00,
2013-01-29 10:10:00,72.3,63.9,29.72,South,185,3.0,9.0,75,0.00,,CLR,0.00,VWS V14.01,2013-01-29 16:10:00,
2013-01-29 10:14:00,72.5,64.1,29.72,ESE,122,2.0,8.0,75,0.00,,OVC022,0.00,VWS V14.01,2013-01-29 16:14:00,
2013-01-29 10:19:00,72.3,64.3,29.72,SSW,195,3.0,7.0,76,0.00,,OVC022,0.00,VWS V14.01,2013-01-29 16:19:00,
2013-01-29 10:20:00,72.5,64.1,29.72,SSW,198,6.0,12.0,75,0.00,,CLR,0.00,VWS V14.01,2013-01-29 16:20:00,
2013-01-29 10:24:00,72.5,64.1,29.72,South,174,5.0,10.0,75,0.00,,OVC022,0.00,VWS V14.01,2013-01-29 16:24:00,
2013-01-29 10:29:00,72.7,64.3,29.72,South,190,3.0,8.0,75,0.00,,OVC022,0.00,VWS V14.01,2013-01-29 16:29:00,
2013-01-29 10:30:00,72.3,63.9,29.72,South,188,0.0,8.0,75,0.00,,CLR,0.00,VWS V14.01,2013-01-29 16:30:00,
2013-01-29 10:34:00,72.7,63.9,29.73,SSW,207,5.0,10.0,74,0.00,,OVC022,0.00,VWS V14.01,2013-01-29 16:34:00,
2013-01-29 10:39:00,72.7,64.3,29.73,SW,214,5.0,11.0,75,0.00,,OVC022,0.00,VWS V14.01,2013-01-29 16:39:00,
2013-01-29 10:40:00,72.7,64.3,29.72,SSW,192,7.0,10.0,75,0.00,,CLR,0.00,VWS V14.01,2013-01-29 16:40:00,
2013-01-29 10:44:00,72.8,64.4,29.73,South,175,4.0,11.0,75,0.00,,OVC022,0.00,VWS V14.01,2013-01-29 16:44:00,
2013-01-29 10:49:00,72.8,64.4,29.73,South,182,1.0,4.0,75,0.00,,OVC022,0.00,VWS V14.01,2013-01-29 16:49:00,
2013-01-29 10:50:00,72.7,64.3,29.73,SSW,197,11.0,11.0,75,0.00,,CLR,0.00,VWS V14.01,2013-01-29 16:50:00,
2013-01-29 10:54:00,73.2,64.4,29.73,South,189,7.0,9.0,74,0.00,,OVC022,0.00,VWS V14.01,2013-01-29 16:54:00,
2013-01-29 10:59:00,73.4,64.6,29.73,South,190,2.0,7.0,74,0.00,,OVC022,0.00,VWS V14.01,2013-01-29 16:59:00,
2013-01-29 11:00:00,72.8,64.4,29.73,South,184,1.0,11.0,75,0.00,,CLR,0.00,VWS V14.01,2013-01-29 17:00:00,
2013-01-29 11:04:00,73.4,64.2,29.72,SSW,211,5.0,7.0,73,0.00,,OVC027,0.00,VWS V14.01,2013-01-29 17:04:00,
2013-01-29 11:09:00,73.4,64.6,29.72,South,190,3.0,5.0,74,0.00,,OVC027,0.00,VWS V14.01,2013-01-29 17:09:00,
2013-01-29 11:10:00,73.2,64.4,29.73,SSW,196,4.0,9.0,74,0.00,,CLR,0.00,VWS V14.01,2013-01-29 17:10:00,
2013-01-29 11:14:00,73.4,64.6,29.72,SSW,205,6.0,8.0,74,0.00,,OVC027,0.00,VWS V14.01,2013-01-29 17:14:00,
2013-01-29 11:19:00,73.5,64.3,29.72,SSW,192,2.0,7.0,73,0.00,,OVC027,0.00,VWS V14.01,2013-01-29 17:19:00,
2013-01-29 11:20:00,73.4,64.6,29.72,South,180,1.0,9.0,74,0.00,,CLR,0.00,VWS V14.01,2013-01-29 17:20:00,
2013-01-29 11:24:00,73.4,64.2,29.72,SSW,202,3.0,9.0,73,0.00,,OVC027,0.00,VWS V14.01,2013-01-29 17:24:00,
2013-01-29 11:29:00,73.5,64.3,29.72,South,191,0.0,3.0,73,0.00,,OVC027,0.00,VWS V14.01,2013-01-29 17:29:00,
2013-01-29 11:30:00,73.4,64.2,29.72,SSW,202,3.0,9.0,73,0.00,,CLR,0.00,VWS V14.01,2013-01-29 17:30:00,
2013-01-29 11:34:00,74.1,64.9,29.71,SSE,164,2.0,7.0,73,0.00,,OVC027,0.00,VWS V14.01,2013-01-29 17:34:00,
2013-01-29 11:39:00,74.6,65.0,29.71,South,178,1.0,4.0,72,0.00,,OVC027,0.00,VWS V14.01,2013-01-29 17:39:00,
2013-01-29 11:40:00,73.5,64.3,29.72,South,191,3.0,9.0,73,0.00,,CLR,0.00,VWS V14.01,2013-01-29 17:40:00,
2013-01-29 11:44:00,74.9,64.9,29.71,South,171,6.0,8.0,71,0.00,,OVC027,0.00,VWS V14.01,2013-01-29 17:44:00,
2013-01-29 11:49:00,75.5,65.0,29.69,South,182,0.0,6.0,70,0.00,,OVC027,0.00,VWS V14.01,2013-01-29 17:49:00,
2013-01-29 11:50:00,74.4,64.8,29.71,SSW,192,0.0,7.0,72,0.00,,CLR,0.00,VWS V14.01,2013-01-29 17:50:00,
2013-01-29 11:54:00,76.2,64.9,29.69,SSE,165,4.0,6.0,68,0.00,,BKN038,0.00,VWS V14.01,2013-01-29 17:54:00,
2013-01-29 11:59:00,76.9,66.0,29.69,SSW,206,4.0,4.0,69,0.00,,BKN038,0.00,VWS V14.01,2013-01-29 17:59:00,
2013-01-29 12:00:00,75.3,64.8,29.69,SSW,194,2.0,8.0,70,0.00,,CLR,0.00,VWS V14.01,2013-01-29 18:00:00,
2013-01-29 12:04:00,77.4,65.2,29.67,SSW,202,3.0,8.0,66,0.00,,BKN043,0.00,VWS V14.01,2013-01-29 18:04:00,
2013-01-29 12:09:00,77.6,64.9,29.67,SSW,207,9.0,9.0,65,0.00,,BKN043,0.00,VWS V14.01,2013-01-29 18:09:00,
2013-01-29 12:10:00,76.7,65.3,29.69,South,189,0.0,6.0,68,0.00,,CLR,0.00,VWS V14.01,2013-01-29 18:10:00,
2013-01-29 12:14:00,78.0,64.4,29.67,SSW,198,1.0,9.0,63,0.00,,BKN043,0.00,VWS V14.01,2013-01-29 18:14:00,
2013-01-29 12:19:00,78.0,64.8,29.67,SSW,201,2.0,7.0,64,0.00,,BKN043,0.00,VWS V14.01,2013-01-29 18:19:00,
2013-01-29 12:20:00,77.6,64.9,29.67,SSW,196,2.0,8.0,65,0.00,,CLR,0.00,VWS V14.01,2013-01-29 18:20:00,
2013-01-29 12:24:00,78.1,64.5,29.67,South,191,5.0,8.0,63,0.00,,BKN027,0.00,VWS V14.01,2013-01-29 18:24:00,
2013-01-29 12:29:00,78.9,64.3,29.67,SSW,203,7.0,10.0,61,0.00,,BKN027,0.00,VWS V14.01,2013-01-29 18:29:00,
2013-01-29 12:30:00,78.0,64.8,29.67,SSW,206,6.0,9.0,64,0.00,,CLR,0.00,VWS V14.01,2013-01-29 18:30:00,
2013-01-29 12:34:00,79.3,64.2,29.65,SSW,211,8.0,10.0,60,0.00,,BKN027,0.00,VWS V14.01,2013-01-29 18:34:00,
2013-01-29 12:39:00,79.3,64.2,29.65,South,175,2.0,7.0,60,0.00,,BKN027,0.00,VWS V14.01,2013-01-29 18:39:00,
2013-01-29 12:40:00,78.7,64.1,29.67,SSW,195,8.0,9.0,61,0.00,,CLR,0.00,VWS V14.01,2013-01-29 18:40:00,
2013-01-29 12:44:00,79.6,64.0,29.65,SSW,196,4.0,8.0,59,0.00,,BKN044,0.00,VWS V14.01,2013-01-29 18:44:00,
2013-01-29 12:49:00,80.0,62.4,29.64,SSE,158,5.0,9.0,55,0.00,,BKN044,0.00,VWS V14.01,2013-01-29 18:49:00,
2013-01-29 12:50:00,79.3,64.2,29.65,SSW,193,6.0,10.0,60,0.00,,CLR,0.00,VWS V14.01,2013-01-29 18:50:00,
2013-01-29 12:54:00,80.7,62.5,29.64,SSE,168,6.0,9.0,54,0.00,,BKN044,0.00,VWS V14.01,2013-01-29 18:54:00,
2013-01-29 12:59:00,81.3,62.5,29.64,SSW,198,5.0,8.0,53,0.00,,BKN044,0.00,VWS V14.01,2013-01-29 18:59:00,
2013-01-29 13:00:00,80.0,63.4,29.64,South,186,9.0,10.0,57,0.00,,CLR,0.00,VWS V14.01,2013-01-29 19:00:00,
2013-01-29 13:04:00,81.7,62.4,29.62,SSW,205,5.0,10.0,52,0.00,,BKN036,0.00,VWS V14.01,2013-01-29 19:04:00,
2013-01-29 13:09:00,82.1,63.3,29.62,SSW,197,4.0,8.0,53,0.00,,BKN036,0.00,VWS V14.01,2013-01-29 19:09:00,
2013-01-29 13:10:00,81.1,62.9,29.64,South,186,8.0,9.0,54,0.00,,CLR,0.00,VWS V14.01,2013-01-29 19:10:00,
2013-01-29 13:14:00,82.1,62.2,29.62,SSW,200,3.0,8.0,51,0.00,,BKN036,0.00,VWS V14.01,2013-01-29 19:14:00,
2013-01-29 13:19:00,81.7,63.5,29.61,SSW,200,6.0,8.0,54,0.00,,BKN036,0.00,VWS V14.01,2013-01-29 19:19:00,
2013-01-29 13:20:00,81.9,63.6,29.62,SSW,203,6.0,10.0,54,0.00,,CLR,0.00,VWS V14.01,2013-01-29 19:20:00,
2013-01-29 13:24:00,81.9,62.6,29.61,SSW,213,3.0,9.0,52,0.00,,BKN036,0.00,VWS V14.01,2013-01-29 19:24:00,
2013-01-29 13:29:00,82.1,62.2,29.61,SSE,167,4.0,9.0,51,0.00,,BKN036,0.00,VWS V14.01,2013-01-29 19:29:00,
2013-01-29 13:30:00,81.7,62.9,29.61,SSW,209,7.0,8.0,53,0.00,,CLR,0.00,VWS V14.01,2013-01-29 19:30:00,
2013-01-29 13:34:00,81.9,62.0,29.60,SSW,204,4.0,9.0,51,0.00,,BKN036,0.00,VWS V14.01,2013-01-29 19:34:00,
2013-01-29 13:39:00,82.3,61.2,29.60,SSW,192,4.0,7.0,49,0.00,,BKN036,0.00,VWS V14.01,2013-01-29 19:39:00,
2013-01-29 13:40:00,82.1,62.2,29.61,South,188,4.0,9.0,51,0.00,,CLR,0.00,VWS V14.01,2013-01-29 19:40:00,
2013-01-29 13:44:00,83.1,60.8,29.60,SSW,205,6.0,9.0,47,0.00,,BKN036,0.00,VWS V14.01,2013-01-29 19:44:00,
2013-01-29 13:50:00,83.3,61.6,29.59,SSW,205,4.0,7.0,48,0.00,,BKN036,0.00,VWS V14.01,2013-01-29 19:50:00,
2013-01-29 13:54:00,83.3,60.4,29.59,SSW,205,3.0,9.0,46,0.00,,BKN036,0.00,VWS V14.01,2013-01-29 19:54:00,
2013-01-29 13:58:00,82.9,61.2,29.59,South,172,5.0,9.0,48,0.00,,BKN036,0.00,VWS V14.01,2013-01-29 19:58:00,
2013-01-29 14:00:00,83.3,61.6,29.59,SSW,194,2.0,9.0,48,0.00,,CLR,0.00,VWS V14.01,2013-01-29 20:00:00,
2013-01-29 14:03:00,82.5,60.8,29.58,South,182,3.0,9.0,48,0.00,,SCT041,0.00,VWS V14.01,2013-01-29 20:03:00,
2013-01-29 14:08:00,82.7,61.0,29.58,SSE,160,6.0,9.0,48,0.00,,SCT041,0.00,VWS V14.01,2013-01-29 20:08:00,
2013-01-29 14:10:00,82.9,60.6,29.59,South,182,8.0,9.0,47,0.00,,CLR,0.00,VWS V14.01,2013-01-29 20:10:00,
2013-01-29 14:13:00,82.9,60.0,29.58,SSW,203,6.0,7.0,46,0.00,,SCT041,0.00,VWS V14.01,2013-01-29 20:13:00,
2013-01-29 14:18:00,83.5,59.3,29.57,SSW,203,4.0,7.0,44,0.00,,SCT041,0.00,VWS V14.01,2013-01-29 20:18:00,
2013-01-29 14:20:00,82.7,61.0,29.58,SSW,196,5.0,9.0,48,0.00,,CLR,0.00,VWS V14.01,2013-01-29 20:20:00,
2013-01-29 14:23:00,83.5,56.7,29.57,SSW,209,3.0,10.0,40,0.00,,SCT041,0.00,VWS V14.01,2013-01-29 20:23:00,
2013-01-29 14:28:00,83.3,57.8,29.57,SSW,193,3.0,10.0,42,0.00,,SCT041,0.00,VWS V14.01,2013-01-29 20:28:00,
2013-01-29 14:30:00,83.6,59.4,29.57,SSE,159,4.0,7.0,44,0.00,,CLR,0.00,VWS V14.01,2013-01-29 20:30:00,
2013-01-29 14:33:00,83.3,59.1,29.56,SSW,194,7.0,8.0,44,0.00,,SCT041,0.00,VWS V14.01,2013-01-29 20:33:00,
2013-01-29 14:38:00,83.1,58.3,29.56,SSW,200,2.0,9.0,43,0.00,,SCT041,0.00,VWS V14.01,2013-01-29 20:38:00,
2013-01-29 14:40:00,83.3,58.5,29.57,SSW,193,2.0,10.0,43,0.00,,CLR,0.00,VWS V14.01,2013-01-29 20:40:00,
2013-01-29 14:43:00,82.9,56.8,29.56,South,183,2.0,9.0,41,0.00,,SCT041,0.00,VWS V14.01,2013-01-29 20:43:00,
2013-01-29 14:48:00,82.7,56.0,29.55,SW,220,0.0,9.0,40,0.00,,SCT041,0.00,VWS V14.01,2013-01-29 20:48:00,
2013-01-29 14:50:00,83.1,58.3,29.56,SSW,203,2.0,9.0,43,0.00,,CLR,0.00,VWS V14.01,2013-01-29 20:50:00,
2013-01-29 14:53:00,82.7,56.6,29.55,South,191,3.0,7.0,41,0.00,,SCT041,0.00,VWS V14.01,2013-01-29 20:53:00,
2013-01-29 14:58:00,82.5,57.1,29.55,SSW,210,3.0,8.0,42,0.00,,SCT041,0.00,VWS V14.01,2013-01-29 20:58:00,
2013-01-29 15:00:00,82.7,56.0,29.55,SW,220,2.0,9.0,40,0.00,,CLR,0.00,VWS V14.01,2013-01-29 21:00:00,
2013-01-29 15:03:00,82.3,54.2,29.55,SSW,204,4.0,11.0,38,0.00,,CLR,0.00,VWS V14.01,2013-01-29 21:03:00,
2013-01-29 15:08:00,82.3,54.2,29.55,SSW,199,6.0,11.0,38,0.00,,CLR,0.00,VWS V14.01,2013-01-29 21:08:00,
2013-01-29 15:10:00,82.5,57.1,29.55,SSW,210,2.0,8.0,42,0.00,,CLR,0.00,VWS V14.01,2013-01-29 21:10:00,
2013-01-29 15:13:00,82.7,53.8,29.55,SSW,203,3.0,10.0,37,0.00,,CLR,0.00,VWS V14.01,2013-01-29 21:13:00,
2013-01-29 15:18:00,83.5,55.2,29.54,SSW,194,2.0,10.0,38,0.00,,CLR,0.00,VWS V14.01,2013-01-29 21:18:00,
2013-01-29 15:20:00,82.3,53.5,29.55,SSW,205,10.0,11.0,37,0.00,,CLR,0.00,VWS V14.01,2013-01-29 21:20:00,
2013-01-29 15:23:00,83.5,54.5,29.54,SSW,212,5.0,9.0,37,0.00,,CLR,0.00,VWS V14.01,2013-01-29 21:23:00,
2013-01-29 15:28:00,83.8,54.0,29.54,SSW,202,4.0,9.0,36,0.00,,CLR,0.00,VWS V14.01,2013-01-29 21:28:00,
2013-01-29 15:30:00,83.5,55.2,29.54,SSW,205,3.0,10.0,38,0.00,,CLR,0.00,VWS V14.01,2013-01-29 21:30:00,
2013-01-29 15:33:00,84.0,51.0,29.53,South,189,3.0,9.0,32,0.00,,CLR,0.00,VWS V14.01,2013-01-29 21:33:00,
2013-01-29 15:38:00,83.8,50.8,29.53,South,175,5.0,9.0,32,0.00,,CLR,0.00,VWS V14.01,2013-01-29 21:38:00,
2013-01-29 15:40:00,83.8,54.0,29.54,SSW,202,3.0,9.0,36,0.00,,CLR,0.00,VWS V14.01,2013-01-29 21:40:00,
2013-01-29 15:43:00,83.6,51.5,29.53,SSW,197,3.0,8.0,33,0.00,,CLR,0.00,VWS V14.01,2013-01-29 21:43:00,
2013-01-29 15:48:00,83.5,52.2,29.53,South,184,3.0,8.0,34,0.00,,CLR,0.00,VWS V14.01,2013-01-29 21:48:00,
2013-01-29 15:50:00,83.8,50.8,29.53,SSW,199,8.0,9.0,32,0.00,,CLR,0.00,VWS V14.01,2013-01-29 21:50:00,
2013-01-29 15:53:00,83.3,53.6,29.53,South,169,2.0,11.0,36,0.00,,CLR,0.00,VWS V14.01,2013-01-29 21:53:00,
2013-01-29 15:58:00,83.3,55.1,29.53,South,186,1.0,11.0,38,0.00,,CLR,0.00,VWS V14.01,2013-01-29 21:58:00,
2013-01-29 16:00:00,83.5,52.2,29.53,SSW,199,4.0,8.0,34,0.00,,CLR,0.00,VWS V14.01,2013-01-29 22:00:00,
2013-01-29 16:03:00,83.1,52.6,29.52,SSE,147,4.0,10.0,35,0.00,,CLR,0.00,VWS V14.01,2013-01-29 22:03:00,
2013-01-29 16:08:00,83.3,52.0,29.52,South,186,2.0,10.0,34,0.00,,CLR,0.00,VWS V14.01,2013-01-29 22:08:00,
2013-01-29 16:10:00,83.3,55.1,29.53,South,186,3.0,11.0,38,0.00,,CLR,0.00,VWS V14.01,2013-01-29 22:10:00,
2013-01-29 16:13:00,83.8,53.3,29.52,SSW,211,5.0,6.0,35,0.00,,CLR,0.00,VWS V14.01,2013-01-29 22:13:00,
2013-01-29 16:18:00,84.0,52.6,29.51,SSW,210,4.0,6.0,34,0.00,,CLR,0.00,VWS V14.01,2013-01-29 22:18:00,
2013-01-29 16:20:00,83.3,52.0,29.52,South,186,1.0,10.0,34,0.00,,CLR,0.00,VWS V14.01,2013-01-29 22:20:00,
2013-01-29 16:23:00,83.8,50.0,29.51,SSW,193,5.0,9.0,31,0.00,,CLR,0.00,VWS V14.01,2013-01-29 22:23:00,
2013-01-29 16:28:00,83.8,50.8,29.51,SSW,196,6.0,9.0,32,0.00,,CLR,0.00,VWS V14.01,2013-01-29 22:28:00,
2013-01-29 16:30:00,84.0,51.0,29.51,SSW,211,4.0,6.0,32,0.00,,CLR,0.00,VWS V14.01,2013-01-29 22:30:00,
2013-01-29 16:33:00,83.8,49.1,29.52,South,187,2.0,14.0,30,0.00,,CLR,0.00,VWS V14.01,2013-01-29 22:33:00,
2013-01-29 16:38:00,83.8,49.1,29.52,South,184,4.0,14.0,30,0.00,,CLR,0.00,VWS V14.01,2013-01-29 22:38:00,
2013-01-29 16:40:00,83.8,50.8,29.51,SSE,165,14.0,14.0,32,0.00,,CLR,0.00,VWS V14.01,2013-01-29 22:40:00,
2013-01-29 16:43:00,83.8,49.1,29.52,South,191,3.0,7.0,30,0.00,,CLR,0.00,VWS V14.01,2013-01-29 22:43:00,
2013-01-29 16:48:00,84.0,51.0,29.51,SSW,197,2.0,8.0,32,0.00,,CLR,0.00,VWS V14.01,2013-01-29 22:48:00,
2013-01-29 16:50:00,83.8,49.1,29.52,South,185,3.0,14.0,30,0.00,,CLR,0.00,VWS V14.01,2013-01-29 22:50:00,
2013-01-29 16:53:00,83.8,51.7,29.51,South,188,1.0,5.0,33,0.00,,CLR,0.00,VWS V14.01,2013-01-29 22:53:00,
2013-01-29 16:58:00,83.6,52.3,29.51,SSW,197,3.0,6.0,34,0.00,,CLR,0.00,VWS V14.01,2013-01-29 22:58:00,
2013-01-29 17:00:00,84.0,51.0,29.51,SSW,197,3.0,8.0,32,0.00,,CLR,0.00,VWS V14.01,2013-01-29 23:00:00,
2013-01-29 17:03:00,83.5,52.2,29.51,South,183,0.0,7.0,34,0.00,,SCT050,0.00,VWS V14.01,2013-01-29 23:03:00,
2013-01-29 17:08:00,83.3,52.0,29.51,SSW,192,4.0,7.0,34,0.00,,SCT050,0.00,VWS V14.01,2013-01-29 23:08:00,
2013-01-29 17:10:00,83.6,52.3,29.51,SSW,197,2.0,6.0,34,0.00,,CLR,0.00,VWS V14.01,2013-01-29 23:10:00,
2013-01-29 17:13:00,83.1,51.9,29.51,SSW,196,2.0,8.0,34,0.00,,SCT050,0.00,VWS V14.01,2013-01-29 23:13:00,
2013-01-29 17:18:00,82.5,52.1,29.51,South,175,1.0,8.0,35,0.00,,SCT050,0.00,VWS V14.01,2013-01-29 23:18:00,
2013-01-29 17:20:00,83.3,52.0,29.51,SSW,192,2.0,7.0,34,0.00,,CLR,0.00,VWS V14.01,2013-01-29 23:20:00,
2013-01-29 17:23:00,82.1,51.8,29.51,South,178,0.0,6.0,35,0.00,,SCT050,0.00,VWS V14.01,2013-01-29 23:23:00,
2013-01-29 17:28:00,81.7,53.7,29.51,South,178,0.0,6.0,38,0.00,,SCT050,0.00,VWS V14.01,2013-01-29 23:28:00,
2013-01-29 17:30:00,82.5,52.1,29.51,South,179,1.0,8.0,35,0.00,,CLR,0.00,VWS V14.01,2013-01-29 23:30:00,
2013-01-29 17:33:00,81.5,54.2,29.52,South,189,2.0,4.0,39,0.00,,SCT050,0.00,VWS V14.01,2013-01-29 23:33:00,
2013-01-29 17:38:00,81.3,54.7,29.52,South,190,1.0,4.0,40,0.00,,SCT050,0.00,VWS V14.01,2013-01-29 23:38:00,
2013-01-29 17:40:00,81.7,53.7,29.51,South,178,0.0,6.0,38,0.00,,CLR,0.00,VWS V14.01,2013-01-29 23:40:00,
2013-01-29 17:43:00,81.3,54.7,29.52,South,171,2.0,6.0,40,0.00,,SCT050,0.00,VWS V14.01,2013-01-29 23:43:00,
2013-01-29 17:48:00,81.3,55.4,29.52,SSW,192,0.0,6.0,41,0.00,,SCT050,0.00,VWS V14.01,2013-01-29 23:48:00,
2013-01-29 17:50:00,81.3,54.7,29.52,South,190,0.0,4.0,40,0.00,,CLR,0.00,VWS V14.01,2013-01-29 23:50:00,
2013-01-29 17:53:00,81.1,55.2,29.52,NW,320,2.0,4.0,41,0.00,,SCT050,0.00,VWS V14.01,2013-01-29 23:53:00,
2013-01-29 17:58:00,79.6,44.6,29.52,NNW,332,5.0,8.0,29,0.00,,SCT050,0.00,VWS V14.01,2013-01-29 23:58:00,
2013-01-29 18:00:00,81.3,55.4,29.52,SSW,192,0.0,6.0,41,0.00,,CLR,0.00,VWS V14.01,2013-01-30 00:00:00,
2013-01-29 18:03:00,75.8,44.7,29.60,North,355,4.0,8.0,33,0.00,,SCT060,0.00,VWS V14.01,2013-01-30 00:03:00,
2013-01-29 18:08:00,72.5,43.3,29.60,NW,314,3.0,9.0,35,0.00,,SCT060,0.00,VWS V14.01,2013-01-30 00:08:00,
2013-01-29 18:10:00,79.4,46.2,29.52,NNW,341,3.0,8.0,31,0.00,,CLR,0.00,VWS V14.01,2013-01-30 00:10:00,
2013-01-29 18:13:00,70.3,42.8,29.60,NNW,327,4.0,9.0,37,0.00,,SCT060,0.00,VWS V14.01,2013-01-30 00:13:00,
2013-01-29 18:18:00,68.9,42.3,29.61,NNW,340,3.0,9.0,38,0.00,,SCT060,0.00,VWS V14.01,2013-01-30 00:18:00,
2013-01-29 18:20:00,72.5,43.3,29.60,NNW,344,6.0,9.0,35,0.00,,CLR,0.00,VWS V14.01,2013-01-30 00:20:00,
2013-01-29 18:23:00,68.1,42.2,29.61,NNW,331,4.0,8.0,39,0.00,,SCT060,0.00,VWS V14.01,2013-01-30 00:23:00,
2013-01-29 18:28:00,67.4,41.6,29.61,NNW,332,3.0,10.0,39,0.00,,SCT060,0.00,VWS V14.01,2013-01-30 00:28:00,
2013-01-29 18:30:00,68.9,42.3,29.61,NNW,342,7.0,9.0,38,0.00,,CLR,0.00,VWS V14.01,2013-01-30 00:30:00,
2013-01-29 18:33:00,66.9,40.5,29.63,North,355,4.0,9.0,38,0.00,,SCT060,0.00,VWS V14.01,2013-01-30 00:33:00,
2013-01-29 18:38:00,66.6,40.9,29.63,NNW,332,4.0,9.0,39,0.00,,SCT060,0.00,VWS V14.01,2013-01-30 00:38:00,
2013-01-29 18:40:00,67.4,41.6,29.61,NNW,332,3.0,10.0,39,0.00,,CLR,0.00,VWS V14.01,2013-01-30 00:40:00,
2013-01-29 18:43:00,66.3,40.0,29.63,NW,325,7.0,8.0,38,0.00,,SCT060,0.00,VWS V14.01,2013-01-30 00:43:00,
2013-01-29 18:48:00,66.1,39.8,29.64,NW,306,2.0,8.0,38,0.00,,SCT060,0.00,VWS V14.01,2013-01-30 00:48:00,
2013-01-29 18:50:00,66.6,40.9,29.63,NNW,348,4.0,9.0,39,0.00,,CLR,0.00,VWS V14.01,2013-01-30 00:50:00,
2013-01-29 18:53:00,65.9,38.9,29.64,NNW,331,2.0,9.0,37,0.00,,SCT060,0.00,VWS V14.01,2013-01-30 00:53:00,
2013-01-29 18:58:00,65.8,38.8,29.64,NW,320,2.0,9.0,37,0.00,,SCT060,0.00,VWS V14.01,2013-01-30 00:58:00,
2013-01-29 19:00:00,66.1,39.8,29.64,NW,311,6.0,8.0,38,0.00,,CLR,0.00,VWS V14.01,2013-01-30 01:00:00,
2013-01-29 19:03:00,65.6,38.0,29.65,NNW,329,0.0,7.0,36,0.00,,FEW095,0.00,VWS V14.01,2013-01-30 01:03:00,
2013-01-29 19:08:00,65.6,38.0,29.65,North,5,0.0,7.0,36,0.00,,FEW095,0.00,VWS V14.01,2013-01-30 01:08:00,
2013-01-29 19:10:00,65.8,38.8,29.64,NW,320,2.0,9.0,37,0.00,,CLR,0.00,VWS V14.01,2013-01-30 01:10:00,
2013-01-29 19:13:00,65.5,37.2,29.65,NNW,327,2.0,6.0,35,0.00,,FEW095,0.00,VWS V14.01,2013-01-30 01:13:00,
2013-01-29 19:18:00,65.5,36.4,29.66,North,351,2.0,6.0,34,0.00,,FEW095,0.00,VWS V14.01,2013-01-30 01:18:00,
2013-01-29 19:20:00,65.6,38.0,29.65,North,5,1.0,7.0,36,0.00,,CLR,0.00,VWS V14.01,2013-01-30 01:20:00,
2013-01-29 19:23:00,65.5,36.4,29.66,NNW,331,2.0,4.0,34,0.00,,FEW095,0.00,VWS V14.01,2013-01-30 01:23:00,
2013-01-29 19:28:00,65.5,34.9,29.66,NW,325,3.0,5.0,32,0.00,,FEW095,0.00,VWS V14.01,2013-01-30 01:28:00,
2013-01-29 19:30:00,65.5,36.4,29.66,North,355,3.0,6.0,34,0.00,,CLR,0.00,VWS V14.01,2013-01-30 01:30:00,
2013-01-29 19:33:00,65.5,34.9,29.67,NW,323,2.0,6.0,32,0.00,,FEW095,0.00,VWS V14.01,2013-01-30 01:33:00,
2013-01-29 19:38:00,65.3,34.7,29.67,NW,313,3.0,6.0,32,0.00,,FEW095,0.00,VWS V14.01,2013-01-30 01:38:00,
2013-01-29 19:40:00,65.5,34.9,29.66,NW,325,3.0,5.0,32,0.00,,CLR,0.00,VWS V14.01,2013-01-30 01:40:00,
2013-01-29 19:43:00,65.3,33.9,29.67,NW,317,3.0,6.0,31,0.00,,FEW095,0.00,VWS V14.01,2013-01-30 01:43:00,
2013-01-29 19:48:00,65.1,34.5,29.68,NNW,330,5.0,6.0,32,0.00,,FEW095,0.00,VWS V14.01,2013-01-30 01:48:00,
2013-01-29 19:50:00,65.3,34.7,29.67,NW,313,3.0,6.0,32,0.00,,CLR,0.00,VWS V14.01,2013-01-30 01:50:00,
2013-01-29 19:53:00,65.0,33.7,29.68,NW,317,1.0,5.0,31,0.00,,FEW095,0.00,VWS V14.01,2013-01-30 01:53:00,
2013-01-29 19:58:00,64.8,33.5,29.68,NNW,347,2.0,5.0,31,0.00,,FEW095,0.00,VWS V14.01,2013-01-30 01:58:00,
2013-01-29 20:00:00,65.1,34.5,29.68,NNW,330,5.0,6.0,32,0.00,,CLR,0.00,VWS V14.01,2013-01-30 02:00:00,
2013-01-29 20:03:00,64.7,34.2,29.70,West,278,1.0,3.0,32,0.00,,CLR,0.00,VWS V14.01,2013-01-30 02:03:00,
2013-01-29 20:08:00,64.5,33.2,29.70,North,355,1.0,3.0,31,0.00,,CLR,0.00,VWS V14.01,2013-01-30 02:08:00,
2013-01-29 20:10:00,64.8,33.5,29.68,NNW,347,1.0,5.0,31,0.00,,CLR,0.00,VWS V14.01,2013-01-30 02:10:00,
2013-01-29 20:13:00,64.3,33.8,29.70,North,355,0.0,4.0,32,0.00,,CLR,0.00,VWS V14.01,2013-01-30 02:13:00,
2013-01-29 20:18:00,64.2,33.8,29.71,North,355,1.0,4.0,32,0.00,,CLR,0.00,VWS V14.01,2013-01-30 02:18:00,
2013-01-29 20:20:00,64.5,33.2,29.70,North,355,1.0,3.0,31,0.00,,CLR,0.00,VWS V14.01,2013-01-30 02:20:00,
2013-01-29 20:23:00,64.0,32.8,29.71,North,355,0.0,2.0,31,0.00,,CLR,0.00,VWS V14.01,2013-01-30 02:23:00,
2013-01-29 20:28:00,63.7,32.5,29.71,North,360,2.0,4.0,31,0.00,,CLR,0.00,VWS V14.01,2013-01-30 02:28:00,
2013-01-29 20:30:00,64.2,33.8,29.71,North,355,0.0,4.0,32,0.00,,CLR,0.00,VWS V14.01,2013-01-30 02:30:00,
2013-01-29 20:33:00,63.7,33.3,29.71,North,360,0.0,2.0,32,0.00,,CLR,0.00,VWS V14.01,2013-01-30 02:33:00,
2013-01-29 20:38:00,63.5,33.9,29.71,North,360,0.0,2.0,33,0.00,,CLR,0.00,VWS V14.01,2013-01-30 02:38:00,
2013-01-29 20:40:00,63.7,32.5,29.71,North,360,2.0,4.0,31,0.00,,CLR,0.00,VWS V14.01,2013-01-30 02:40:00,
2013-01-29 20:43:00,63.0,33.5,29.71,North,360,0.0,0.0,33,0.00,,CLR,0.00,VWS V14.01,2013-01-30 02:43:00,
2013-01-29 20:48:00,62.7,33.2,29.73,North,360,0.0,0.0,33,0.00,,CLR,0.00,VWS V14.01,2013-01-30 02:48:00,
2013-01-29 20:50:00,63.5,33.9,29.71,North,360,0.0,2.0,33,0.00,,CLR,0.00,VWS V14.01,2013-01-30 02:50:00,
2013-01-29 20:53:00,62.2,33.5,29.73,North,360,0.0,2.0,34,0.00,,CLR,0.00,VWS V14.01,2013-01-30 02:53:00,
2013-01-29 20:58:00,62.1,33.4,29.73,North,360,0.0,2.0,34,0.00,,CLR,0.00,VWS V14.01,2013-01-30 02:58:00,
2013-01-29 21:00:00,62.7,33.2,29.73,North,360,0.0,0.0,33,0.00,,CLR,0.00,VWS V14.01,2013-01-30 03:00:00,
2013-01-29 21:03:00,62.1,31.9,29.73,North,355,2.0,4.0,32,0.00,,CLR,0.00,VWS V14.01,2013-01-30 03:03:00,
2013-01-29 21:08:00,62.4,32.9,29.73,NNW,329,0.0,4.0,33,0.00,,CLR,0.00,VWS V14.01,2013-01-30 03:08:00,
2013-01-29 21:10:00,62.1,33.4,29.73,North,360,0.0,2.0,34,0.00,,CLR,0.00,VWS V14.01,2013-01-30 03:10:00,
2013-01-29 21:13:00,62.4,31.4,29.73,WNW,300,1.0,4.0,31,0.00,,CLR,0.00,VWS V14.01,2013-01-30 03:13:00,
2013-01-29 21:18:00,62.6,31.6,29.75,WNW,301,1.0,4.0,31,0.00,,CLR,0.00,VWS V14.01,2013-01-30 03:18:00,
2013-01-29 21:20:00,62.4,32.9,29.73,NNW,329,0.0,4.0,33,0.00,,CLR,0.00,VWS V14.01,2013-01-30 03:20:00,
2013-01-29 21:23:00,62.4,33.7,29.75,NW,306,0.0,3.0,34,0.00,,CLR,0.00,VWS V14.01,2013-01-30 03:23:00,
2013-01-29 21:28:00,61.9,31.7,29.75,NW,307,0.0,3.0,32,0.00,,CLR,0.00,VWS V14.01,2013-01-30 03:28:00,
2013-01-29 21:30:00,62.6,31.6,29.75,WNW,301,1.0,4.0,31,0.00,,CLR,0.00,VWS V14.01,2013-01-30 03:30:00,
2013-01-29 21:33:00,61.6,33.0,29.75,NW,307,0.0,0.0,34,0.00,,CLR,0.00,VWS V14.01,2013-01-30 03:33:00,
2013-01-29 21:38:00,61.3,28.8,29.75,NW,325,1.0,3.0,29,0.00,,CLR,0.00,VWS V14.01,2013-01-30 03:38:00,
2013-01-29 21:40:00,61.9,31.7,29.75,NW,307,0.0,3.0,32,0.00,,CLR,0.00,VWS V14.01,2013-01-30 03:40:00,
2013-01-29 21:43:00,61.3,30.4,29.75,NW,325,0.0,2.0,31,0.00,,CLR,0.00,VWS V14.01,2013-01-30 03:43:00,
2013-01-29 21:48:00,61.0,28.5,29.76,NW,325,0.0,2.0,29,0.00,,CLR,0.00,VWS V14.01,2013-01-30 03:48:00,
2013-01-29 21:50:00,61.3,28.8,29.75,NW,325,1.0,3.0,29,0.00,,CLR,0.00,VWS V14.01,2013-01-30 03:50:00,
2013-01-29 21:53:00,60.8,30.0,29.76,NW,325,0.0,3.0,31,0.00,,CLR,0.00,VWS V14.01,2013-01-30 03:53:00,
2013-01-29 21:58:00,60.5,29.7,29.76,NW,325,0.0,3.0,31,0.00,,CLR,0.00,VWS V14.01,2013-01-30 03:58:00,
2013-01-29 22:00:00,61.0,28.5,29.76,NW,325,0.0,2.0,29,0.00,,CLR,0.00,VWS V14.01,2013-01-30 04:00:00,
2013-01-29 22:03:00,60.5,28.1,29.77,NNW,336,0.0,3.0,29,0.00,,CLR,0.00,VWS V14.01,2013-01-30 04:03:00,
2013-01-29 22:08:00,60.7,26.5,29.77,NNW,336,0.0,3.0,27,0.00,,CLR,0.00,VWS V14.01,2013-01-30 04:08:00,
2013-01-29 22:10:00,60.5,29.7,29.76,NW,325,0.0,3.0,31,0.00,,CLR,0.00,VWS V14.01,2013-01-30 04:10:00,
2013-01-29 22:13:00,60.7,28.3,29.77,NNW,336,0.0,2.0,29,0.00,,CLR,0.00,VWS V14.01,2013-01-30 04:13:00,
2013-01-29 22:18:00,60.8,25.7,29.77,NNW,336,2.0,3.0,26,0.00,,CLR,0.00,VWS V14.01,2013-01-30 04:18:00,
2013-01-29 22:20:00,60.7,26.5,29.77,NNW,336,0.0,3.0,27,0.00,,CLR,0.00,VWS V14.01,2013-01-30 04:20:00,
2013-01-29 22:23:00,60.8,25.7,29.77,NNW,335,0.0,5.0,26,0.00,,CLR,0.00,VWS V14.01,2013-01-30 04:23:00,
2013-01-29 22:28:00,61.0,25.9,29.77,NNW,345,2.0,7.0,26,0.00,,CLR,0.00,VWS V14.01,2013-01-30 04:28:00,
2013-01-29 22:30:00,60.8,25.7,29.77,NNW,336,2.0,3.0,26,0.00,,CLR,0.00,VWS V14.01,2013-01-30 04:30:00,
2013-01-29 22:33:00,61.1,25.0,29.79,NW,321,0.0,5.0,25,0.00,,CLR,0.00,VWS V14.01,2013-01-30 04:33:00,
2013-01-29 22:38:00,61.1,25.0,29.79,NW,321,0.0,5.0,25,0.00,,CLR,0.00,VWS V14.01,2013-01-30 04:38:00,
2013-01-29 22:40:00,61.0,25.9,29.77,NNW,345,2.0,7.0,26,0.00,,CLR,0.00,VWS V14.01,2013-01-30 04:40:00,
2013-01-29 22:43:00,61.0,25.0,29.79,NW,321,1.0,3.0,25,0.00,,CLR,0.00,VWS V14.01,2013-01-30 04:43:00,
2013-01-29 22:48:00,60.7,24.7,29.80,NW,316,2.0,2.0,25,0.00,,CLR,0.00,VWS V14.01,2013-01-30 04:48:00,
2013-01-29 22:50:00,61.1,25.0,29.79,NW,321,0.0,5.0,25,0.00,,CLR,0.00,VWS V14.01,2013-01-30 04:50:00,
2013-01-29 22:53:00,60.5,24.5,29.80,NW,317,0.0,3.0,25,0.00,,CLR,0.00,VWS V14.01,2013-01-30 04:53:00,
2013-01-29 22:58:00,60.2,26.1,29.80,NW,317,0.0,0.0,27,0.00,,CLR,0.00,VWS V14.01,2013-01-30 04:58:00,
2013-01-29 23:00:00,60.7,24.7,29.80,NW,315,2.0,3.0,25,0.00,,CLR,0.00,VWS V14.01,2013-01-30 05:00:00,
2013-01-29 23:02:00,60.0,26.8,29.80,NW,317,0.0,1.0,28,0.00,,CLR,0.00,VWS V14.01,2013-01-30 05:02:00,
2013-01-29 23:03:00,59.9,27.6,29.80,NW,317,0.0,1.0,29,0.00,,CLR,0.00,VWS V14.01,2013-01-30 05:03:00,
2013-01-29 23:08:00,59.4,27.2,29.80,NW,317,0.0,1.0,29,0.00,,CLR,0.00,VWS V14.01,2013-01-30 05:08:00,
2013-01-29 23:10:00,60.2,26.1,29.80,NW,317,0.0,3.0,27,0.00,,CLR,0.00,VWS V14.01,2013-01-30 05:10:00,
2013-01-29 23:13:00,59.0,26.8,29.80,NW,317,0.0,0.0,29,0.00,,CLR,0.00,VWS V14.01,2013-01-30 05:13:00,
2013-01-29 23:18:00,58.4,28.7,29.82,NW,317,0.0,0.0,32,0.00,,CLR,0.00,VWS V14.01,2013-01-30 05:18:00,
2013-01-29 23:20:00,59.4,27.2,29.80,NW,317,0.0,1.0,29,0.00,,CLR,0.00,VWS V14.01,2013-01-30 05:20:00,
2013-01-29 23:23:00,57.8,27.4,29.82,NW,317,3.0,3.0,31,0.00,,CLR,0.00,VWS V14.01,2013-01-30 05:23:00,
2013-01-29 23:28:00,57.9,24.1,29.82,NNW,330,3.0,7.0,27,0.00,,CLR,0.00,VWS V14.01,2013-01-30 05:28:00,
2013-01-29 23:30:00,58.4,28.7,29.82,NW,317,0.0,0.0,32,0.00,,CLR,0.00,VWS V14.01,2013-01-30 05:30:00,
2013-01-29 23:33:00,58.4,22.7,29.82,NNW,333,1.0,6.0,25,0.00,,CLR,0.00,VWS V14.01,2013-01-30 05:33:00,
2013-01-29 23:38:00,58.7,24.8,29.82,NNW,333,0.0,6.0,27,0.00,,CLR,0.00,VWS V14.01,2013-01-30 05:38:00,
2013-01-29 23:40:00,57.9,24.1,29.82,North,351,5.0,7.0,27,0.00,,CLR,0.00,VWS V14.01,2013-01-30 05:40:00,
2013-01-29 23:43:00,58.4,24.6,29.82,NNW,333,0.0,2.0,27,0.00,,CLR,0.00,VWS V14.01,2013-01-30 05:43:00,
2013-01-29 23:48:00,58.1,25.2,29.83,NNW,333,0.0,2.0,28,0.00,,CLR,0.00,VWS V14.01,2013-01-30 05:48:00,
2013-01-29 23:50:00,58.7,24.8,29.82,NNW,333,0.0,6.0,27,0.00,,CLR,0.00,VWS V14.01,2013-01-30 05:50:00,
2013-01-29 23:53:00,57.8,25.8,29.83,NNW,333,0.0,1.0,29,0.00,,CLR,0.00,VWS V14.01,2013-01-30 05:53:00,
2013-01-29 23:58:00,57.5,23.8,29.83,NNW,333,1.0,1.0,27,0.00,,CLR,0.00,VWS V14.01,2013-01-30 05:58:00,